Bogalusa, LA

10:18 AM CST on February 13, 2016 (GMT -0600)
Carr Memorial

Weather History for KBXA - October, 2012

Change the Weather History Date:

Tuesday, October 30, 2012

  Actual Average Record
Temperature  
Mean Temperature 50 °F -  
Max Temperature 67 °F 76 °F 81 °F (2013)
Min Temperature 32 °F 52 °F 46 °F (2014)
Degree Days  
Heating Degree Days 16    
Moisture  
Dew Point 37 °F    
Average Humidity 74    
Maximum Humidity 100    
Minimum Humidity 26    
Precipitation  
Precipitation 0.00 in - - ()
Sea Level Pressure  
Sea Level Pressure 30.07 in    
Wind  
Wind Speed 2 mph ()    
Max Wind Speed 13 mph    
Max Gust Speed 17 mph    
Visibility 10.0 miles    
Events      
Averages and records for this station are not official NWS values.
T = Trace of Precipitation, MM = Missing Value Source: Averaged Metar Reports

Daily Weather History Graph

Daily Weather History Graph

Search for Another Location

Airport or City:

Trip Planner

Search our weather history database for the weather conditions in past years. The results will help you decide how hot, cold, wet, or windy it might be!

Date:

Astronomy

Oct. 30, 2012 Rise Set
Actual Time 7:13 AM CDT 6:12 PM CDT
Civil Twilight 6:48 AM CDT 6:37 PM CDT
Nautical Twilight 6:19 AM CDT 7:05 PM CDT
Astronomical Twilight 5:51 AM CDT 7:33 PM CDT
Moon 6:47 PM CDT (10/30) 7:55 AM CDT (10/30)
Length of Visible Light 11h 48m
Length of Day
10h 59m
Full, 99% of the Moon is Illuminated
Oct 30
Full
Nov 6
Last Quarter
Nov 13
New
Nov 20
First Quarter
Nov 28
Full

Hourly Weather History & Observations

Time (CDT) Temp. Windchill Dew Point Humidity Pressure Visibility Wind Dir Wind Speed Gust Speed Precip Events Conditions
12:15 AM 38.3 °F 35.9 °F 35.1 °F 88% 30.12 in 10.0 mi WNW 3.5 mph - N/A   Unknown
12:35 AM 38.3 °F - 34.0 °F 84% 30.11 in 10.0 mi Calm Calm - N/A   Unknown
12:55 AM 38.1 °F - 38.1 °F 100% 30.11 in 10.0 mi Calm Calm - N/A   Unknown
1:15 AM 38.1 °F - 37.2 °F 97% 30.11 in 10.0 mi Calm Calm - N/A   Unknown
1:35 AM 38.1 °F - 32.9 °F 81% 30.12 in 10.0 mi Calm Calm - N/A   Unknown
1:55 AM 37.0 °F - 37.0 °F 100% 30.12 in 10.0 mi Calm Calm - N/A   Unknown
2:15 AM 36.1 °F - 36.1 °F 100% 30.12 in 10.0 mi Calm Calm - N/A   Unknown
2:35 AM 36.5 °F - 36.5 °F 100% 30.12 in 10.0 mi Calm Calm - N/A   Unknown
2:55 AM 36.0 °F - 36.0 °F 100% 30.12 in 10.0 mi Calm Calm - N/A   Unknown
3:15 AM 36.1 °F - 36.1 °F 100% 30.11 in 10.0 mi Calm Calm - N/A   Unknown
3:35 AM 36.7 °F - 36.7 °F 100% 30.10 in 10.0 mi Calm Calm - N/A   Unknown
3:55 AM 36.1 °F - 36.1 °F 100% 30.10 in 10.0 mi Calm Calm - N/A   Unknown
4:15 AM 35.1 °F - 35.1 °F 100% 30.10 in 10.0 mi Calm Calm - N/A   Unknown
4:35 AM 35.6 °F - 35.6 °F 100% 30.10 in 10.0 mi Calm Calm - N/A   Unknown
5:15 AM 35.1 °F - 35.1 °F 100% 30.10 in 10.0 mi Calm Calm - N/A   Unknown
5:35 AM 35.1 °F - 35.1 °F 100% 30.10 in 10.0 mi Calm Calm - N/A   Unknown
6:15 AM 33.8 °F - 33.8 °F 100% 30.10 in 10.0 mi Calm Calm - N/A   Unknown
6:35 AM 33.3 °F - 33.3 °F 100% 30.10 in 10.0 mi Calm Calm - N/A   Unknown
6:55 AM 32.9 °F - 32.9 °F 100% 30.10 in 10.0 mi Calm Calm - N/A   Unknown
7:15 AM 33.8 °F - 33.8 °F 100% 30.11 in 10.0 mi Calm Calm - N/A   Unknown
7:35 AM 33.8 °F - 33.8 °F 100% 30.11 in 10.0 mi Calm Calm - N/A   Unknown
7:55 AM 33.6 °F - 33.6 °F 100% 30.11 in 10.0 mi Calm Calm - N/A   Unknown
8:15 AM 36.1 °F - 36.1 °F 100% 30.12 in 10.0 mi Calm Calm - N/A   Unknown
8:35 AM 39.9 °F - 39.2 °F 97% 30.12 in 10.0 mi Calm Calm - N/A   Unknown
8:55 AM 43.7 °F - 35.2 °F 72% 30.12 in 10.0 mi Calm Calm - N/A   Unknown
9:15 AM 47.5 °F - 35.8 °F 64% 30.12 in 10.0 mi WNW 3.5 mph - N/A   Unknown
9:35 AM 50.4 °F - 35.2 °F 56% 30.12 in 10.0 mi WNW 3.5 mph - N/A   Unknown
10:15 AM 55.9 °F - 32.2 °F 41% 30.11 in 10.0 mi NW 8.1 mph - N/A   Unknown
10:35 AM 57.4 °F - 32.2 °F 39% 30.11 in 10.0 mi NW 8.1 mph - N/A   Unknown
10:55 AM 58.5 °F - 31.5 °F 36% 30.11 in 10.0 mi NW 6.9 mph - N/A   Unknown
11:15 AM 59.9 °F - 30.7 °F 33% 30.11 in 10.0 mi NW 4.6 mph - N/A   Unknown
11:35 AM 61.3 °F - 29.3 °F 30% 30.10 in 10.0 mi NW 9.2 mph - N/A   Unknown
11:55 AM 62.4 °F - 29.5 °F 29% 30.10 in 10.0 mi NNW 10.4 mph - N/A   Unknown
12:15 PM 63.0 °F - 30.9 °F 30% 30.09 in 10.0 mi NW 5.8 mph - N/A   Unknown
12:35 PM 63.5 °F - 30.6 °F 29% 30.08 in 10.0 mi NW 12.7 mph - N/A   Unknown
12:55 PM 64.0 °F - 30.0 °F 28% 30.08 in 10.0 mi NW 9.2 mph 16.1 mph N/A   Unknown
1:15 PM 64.0 °F - 30.2 °F 28% 30.07 in 10.0 mi NW 5.8 mph - N/A   Unknown
1:35 PM 65.1 °F - 30.0 °F 27% 30.05 in 10.0 mi NNW 6.9 mph - N/A   Unknown
1:55 PM 65.8 °F - 30.6 °F 27% 30.05 in 10.0 mi NNW 11.5 mph - N/A   Unknown
2:15 PM 66.4 °F - 31.8 °F 28% 30.03 in 10.0 mi NW 10.4 mph 17.3 mph N/A   Unknown
2:35 PM 67.5 °F - 32.4 °F 27% 30.03 in 10.0 mi NNW 9.2 mph - N/A   Unknown
2:55 PM 66.9 °F - 30.7 °F 26% 30.02 in 10.0 mi NNW 10.4 mph - N/A   Unknown
3:15 PM 67.3 °F - 31.5 °F 26% 30.01 in 10.0 mi NW 8.1 mph - N/A   Unknown
3:35 PM 66.9 °F - 31.8 °F 27% 30.01 in 10.0 mi NW 11.5 mph - N/A   Unknown
3:55 PM 66.9 °F - 30.7 °F 26% 30.01 in 10.0 mi NNW 11.5 mph - N/A   Unknown
4:15 PM 66.6 °F - 32.5 °F 28% 30.01 in 10.0 mi NW 8.1 mph - N/A   Clear
4:55 PM 66.4 °F - 34.3 °F 31% 30.00 in 10.0 mi NW 5.8 mph - N/A   Clear
5:15 PM 65.3 °F - 34.5 °F 32% 30.00 in 10.0 mi NW 5.8 mph - N/A   Clear
5:55 PM 61.2 °F - 41.4 °F 48% 30.00 in 10.0 mi NW 3.5 mph - N/A   Clear
6:15 PM 56.5 °F - 45.3 °F 66% 30.01 in 10.0 mi WNW 3.5 mph - N/A   Clear
6:35 PM 52.7 °F - 45.7 °F 77% 30.02 in 10.0 mi Calm Calm - N/A   Unknown
6:55 PM 51.4 °F - 45.3 °F 80% 30.02 in 10.0 mi Calm Calm - N/A   Unknown
7:15 PM 50.0 °F - 49.5 °F 98% 30.02 in 10.0 mi Calm Calm - N/A   Unknown
7:35 PM 49.5 °F - 48.9 °F 98% 30.03 in 10.0 mi Calm Calm - N/A   Unknown
7:55 PM 48.0 °F - 48.0 °F 100% 30.03 in 10.0 mi Calm Calm - N/A   Unknown
8:15 PM 47.1 °F - 47.1 °F 100% 30.03 in 10.0 mi Calm Calm - N/A   Unknown
8:35 PM 47.1 °F - 47.1 °F 100% 30.03 in 10.0 mi Calm Calm - N/A   Unknown
8:55 PM 46.2 °F - 46.2 °F 100% 30.04 in 10.0 mi Calm Calm - N/A   Unknown
9:15 PM 45.1 °F - 45.1 °F 100% 30.05 in 10.0 mi Calm Calm - N/A   Unknown
9:35 PM 44.1 °F - 44.1 °F 100% 30.05 in 10.0 mi Calm Calm - N/A   Unknown
9:55 PM 45.7 °F - 45.7 °F 100% 30.05 in 10.0 mi Calm Calm - N/A   Unknown
10:15 PM 43.7 °F - 43.7 °F 100% 30.05 in 10.0 mi Calm Calm - N/A   Unknown
10:35 PM 44.2 °F - 44.2 °F 100% 30.05 in 10.0 mi Calm Calm - N/A   Unknown
10:55 PM 43.2 °F - 43.2 °F 100% 30.04 in 10.0 mi Calm Calm - N/A   Unknown
11:15 PM 42.8 °F - 42.8 °F 100% 30.04 in 10.0 mi Calm Calm - N/A   Unknown
11:35 PM 42.4 °F - 42.4 °F 100% 30.05 in 10.0 mi Calm Calm - N/A   Unknown
11:55 PM 43.0 °F - 43.0 °F 100% 30.04 in 10.0 mi Calm Calm - N/A   Unknown